When you browse on this site, cookies collect data to enhance your experience and personalize the content and advertising you see.
Visit our Privacy Policy to learn more. By continuing to use the site, you agree to this use of cookies and data.
  • In United Kingdom
  • List of Countries
  • For 7 days
  • Water Temperature
  • Satellite Maps
  • Weather Map
  • Weather Widgets
  • user-avatar
    Login

    Hourly Weather Villavicencio

    Today, 22 April, Monday

    Time Temperature Precipitation Wind Pressure Humidity
    00:00 +23°C° 0.9 mm 0 mps 718 mmHg 84%
    01:00 +23°C° 0 mm 0 mps 718 mmHg 87%
    02:00 +23°C° 2.2 mm 0 mps 718 mmHg 88%
    03:00 +22°C° 2.2 mm 0 mps 717 mmHg 89%
    04:00 +24°C° 2.2 mm 1 mps 717 mmHg 90%
    05:00 +22°C° 1.6 mm 0 mps 717 mmHg 89%
    06:00 +23°C° 1.6 mm 0 mps 718 mmHg 88%
    07:00 +23°C° 0 mm 0 mps 718 mmHg 83%
    08:00 +27°C° 0.3 mm 1 mps 718 mmHg 78%
    09:00 +28°C° 0.3 mm 1 mps 719 mmHg 72%
    10:00 +30°C° 0.3 mm 1 mps 719 mmHg 67%
    11:00 +30°C° 0.2 mm 1 mps 719 mmHg 63%
    12:00 +31°C° 0.2 mm 2 mps 718 mmHg 60%
    13:00 +32°C° 0.2 mm 2 mps 718 mmHg 57%
    14:00 +31°C° 0.2 mm 2 mps 717 mmHg 60%
    15:00 +31°C° 0.2 mm 2 mps 717 mmHg 63%
    16:00 +30°C° 0.2 mm 2 mps 716 mmHg 65%
    17:00 +28°C° 0.1 mm 1 mps 716 mmHg 73%
    18:00 +27°C° 0.1 mm 1 mps 716 mmHg 80%
    19:00 +23°C° 0.1 mm 0 mps 717 mmHg 87%
    20:00 +23°C° 0.2 mm 0 mps 717 mmHg 86%
    21:00 +23°C° 0.2 mm 0 mps 718 mmHg 85%
    22:00 +23°C° 0.2 mm 0 mps 718 mmHg 84%
    23:00 +23°C° 0.1 mm 0 mps 718 mmHg 84%

    Tomorrow, 23 April, Tuesday

    Time Temperature Precipitation Wind Pressure Humidity
    00:00 +23°C° 0.1 mm 0 mps 718 mmHg 85%
    01:00 +23°C° 0.1 mm 0 mps 717 mmHg 85%
    02:00 +22°C° 0.1 mm 0 mps 717 mmHg 85%
    03:00 +22°C° 0.1 mm 0 mps 717 mmHg 85%
    04:00 +22°C° 0.1 mm 0 mps 717 mmHg 85%
    05:00 +23°C° 0.1 mm 0 mps 717 mmHg 83%
    06:00 +23°C° 0.1 mm 0 mps 718 mmHg 81%
    07:00 +24°C° 0.1 mm 0 mps 718 mmHg 78%
    08:00 +27°C° 0.1 mm 1 mps 718 mmHg 73%
    09:00 +29°C° 0.1 mm 1 mps 719 mmHg 68%
    10:00 +31°C° 0.1 mm 1 mps 719 mmHg 63%
    11:00 +31°C° 0.2 mm 1 mps 719 mmHg 61%
    12:00 +32°C° 0.2 mm 2 mps 718 mmHg 59%
    13:00 +32°C° 0.2 mm 2 mps 717 mmHg 57%
    14:00 +31°C° 0.1 mm 2 mps 717 mmHg 59%
    15:00 +31°C° 0.1 mm 1 mps 716 mmHg 62%
    16:00 +31°C° 0.1 mm 1 mps 715 mmHg 64%
    17:00 +29°C° 0.5 mm 1 mps 715 mmHg 71%
    18:00 +27°C° 0.5 mm 1 mps 716 mmHg 78%
    19:00 +24°C° 0.5 mm 0 mps 716 mmHg 85%
    20:00 +24°C° 0.2 mm 0 mps 717 mmHg 84%
    21:00 +24°C° 0.2 mm 0 mps 717 mmHg 84%
    22:00 +24°C° 0.2 mm 0 mps 718 mmHg 83%
    23:00 +24°C° 0.1 mm 0 mps 718 mmHg 82%

    Day after tomorrow, 24 April, Wednesday

    Time Temperature Precipitation Wind Pressure Humidity
    00:00 +23°C° 0.1 mm 0 mps 718 mmHg 81%
    01:00 +23°C° 0.1 mm 0 mps 717 mmHg 81%
    02:00 +23°C° 0 mm 0 mps 717 mmHg 81%
    03:00 +23°C° 0 mm 0 mps 717 mmHg 82%
    04:00 +22°C° 0 mm 0 mps 717 mmHg 82%
    05:00 +23°C° 0 mm 0 mps 717 mmHg 79%
    06:00 +24°C° 0 mm 0 mps 718 mmHg 76%
    07:00 +25°C° 0 mm 0 mps 719 mmHg 72%
    08:00 +29°C° 0 mm 1 mps 719 mmHg 66%
    09:00 +31°C° 0 mm 1 mps 719 mmHg 60%
    10:00 +32°C° 0 mm 2 mps 720 mmHg 53%
    11:00 +32°C° 0.3 mm 2 mps 719 mmHg 54%
    12:00 +32°C° 0.3 mm 2 mps 718 mmHg 56%
    13:00 +34°C° 0.3 mm 2 mps 718 mmHg 57%
    14:00 +32°C° 0.4 mm 2 mps 717 mmHg 61%
    15:00 +31°C° 0.4 mm 2 mps 716 mmHg 64%
    16:00 +30°C° 0.4 mm 1 mps 715 mmHg 68%
    17:00 +29°C° 0.1 mm 1 mps 716 mmHg 73%
    18:00 +27°C° 0.1 mm 1 mps 716 mmHg 78%
    19:00 +26°C° 0.1 mm 1 mps 717 mmHg 83%
    20:00 +26°C° 0 mm 1 mps 717 mmHg 82%
    21:00 +26°C° 0 mm 1 mps 718 mmHg 80%
    22:00 +26°C° 0 mm 1 mps 718 mmHg 78%
    23:00 +25°C° 0.1 mm 1 mps 718 mmHg 77%

    25 April, Thursday

    Time Temperature Precipitation Wind Pressure Humidity
    00:00 +25°C° 0.1 mm 1 mps 718 mmHg 76%
    01:00 +25°C° 0.1 mm 1 mps 718 mmHg 75%
    02:00 +25°C° 0.1 mm 1 mps 718 mmHg 74%
    03:00 +25°C° 0.1 mm 1 mps 717 mmHg 74%
    04:00 +25°C° 0.1 mm 1 mps 717 mmHg 73%
    05:00 +25°C° 0.2 mm 1 mps 718 mmHg 71%
    06:00 +24°C° 0.2 mm 0 mps 718 mmHg 69%
    07:00 +25°C° 0.2 mm 0 mps 719 mmHg 67%
    08:00 +26°C° 0.2 mm 0 mps 719 mmHg 62%
    09:00 +28°C° 0.2 mm 0 mps 720 mmHg 57%
    10:00 +29°C° 0.2 mm 0 mps 720 mmHg 52%
    11:00 +32°C° 0 mm 1 mps 719 mmHg 50%
    12:00 +33°C° 0 mm 1 mps 719 mmHg 48%
    13:00 +35°C° 0 mm 2 mps 718 mmHg 46%
    14:00 +34°C° 0.1 mm 2 mps 718 mmHg 49%
    15:00 +34°C° 0.1 mm 2 mps 717 mmHg 52%
    16:00 +32°C° 0.1 mm 2 mps 716 mmHg 56%
    17:00 +30°C° 0.4 mm 1 mps 717 mmHg 66%
    18:00 +28°C° 0.4 mm 1 mps 718 mmHg 77%
    19:00 +23°C° 0.4 mm 0 mps 718 mmHg 87%
    20:00 +25°C° 0.4 mm 1 mps 719 mmHg 87%
    21:00 +25°C° 0.4 mm 1 mps 719 mmHg 86%
    22:00 +25°C° 0.4 mm 1 mps 720 mmHg 86%
    23:00 +25°C° 0.1 mm 1 mps 719 mmHg 84%

    26 April, Friday

    Time Temperature Precipitation Wind Pressure Humidity
    00:00 +25°C° 0.1 mm 1 mps 719 mmHg 82%
    01:00 +23°C° 0.1 mm 0 mps 719 mmHg 80%
    02:00 +23°C° 0.1 mm 0 mps 718 mmHg 79%
    03:00 +25°C° 0.1 mm 1 mps 718 mmHg 78%
    04:00 +24°C° 0.1 mm 1 mps 718 mmHg 78%
    05:00 +23°C° 0.1 mm 0 mps 719 mmHg 75%
    06:00 +24°C° 0.1 mm 0 mps 719 mmHg 72%
    07:00 +24°C° 0.1 mm 0 mps 720 mmHg 69%
    08:00 +26°C° 0.1 mm 0 mps 720 mmHg 63%
    09:00 +31°C° 0.1 mm 1 mps 720 mmHg 56%
    10:00 +33°C° 0.1 mm 1 mps 720 mmHg 49%
    11:00 +33°C° 0 mm 1 mps 719 mmHg 48%
    12:00 +35°C° 0 mm 2 mps 718 mmHg 47%
    13:00 +36°C° 0 mm 2 mps 717 mmHg 46%
    14:00 +35°C° 0.1 mm 2 mps 717 mmHg 49%
    15:00 +34°C° 0.1 mm 2 mps 716 mmHg 53%
    16:00 +34°C° 0.1 mm 2 mps 716 mmHg 56%
    17:00 +31°C° 0.8 mm 1 mps 716 mmHg 65%
    18:00 +29°C° 0.8 mm 1 mps 717 mmHg 75%
    19:00 +25°C° 0.8 mm 0 mps 717 mmHg 84%
    20:00 +24°C° 0.8 mm 0 mps 718 mmHg 84%
    21:00 +26°C° 0.8 mm 1 mps 718 mmHg 84%
    22:00 +26°C° 0.8 mm 1 mps 719 mmHg 83%
    23:00 +26°C° 0.3 mm 1 mps 718 mmHg 82%

    27 April, Saturday

    Time Temperature Precipitation Wind Pressure Humidity
    00:00 +26°C° 0.3 mm 1 mps 718 mmHg 81%
    01:00 +24°C° 0.3 mm 0 mps 718 mmHg 80%
    02:00 +23°C° 0.1 mm 0 mps 718 mmHg 80%
    03:00 +23°C° 0.1 mm 0 mps 717 mmHg 80%
    04:00 +23°C° 0.1 mm 0 mps 717 mmHg 80%
    05:00 +23°C° 0.2 mm 0 mps 718 mmHg 78%
    06:00 +24°C° 0.2 mm 0 mps 718 mmHg 76%
    07:00 +24°C° 0.2 mm 0 mps 719 mmHg 74%
    08:00 +26°C° 0.3 mm 0 mps 719 mmHg 69%
    09:00 +29°C° 0.3 mm 1 mps 719 mmHg 65%
    10:00 +30°C° 0.3 mm 1 mps 719 mmHg 60%
    11:00 +31°C° 0.1 mm 1 mps 719 mmHg 57%
    12:00 +32°C° 0.1 mm 1 mps 718 mmHg 54%
    13:00 +34°C° 0.1 mm 2 mps 717 mmHg 51%
    14:00 +32°C° 0.1 mm 2 mps 716 mmHg 54%
    15:00 +32°C° 0.1 mm 2 mps 716 mmHg 57%
    16:00 +31°C° 0.1 mm 2 mps 715 mmHg 59%
    17:00 +29°C° 0.3 mm 1 mps 716 mmHg 68%
    18:00 +27°C° 0.3 mm 1 mps 717 mmHg 76%
    19:00 +26°C° 0.3 mm 1 mps 717 mmHg 85%
    20:00 +26°C° 0.4 mm 1 mps 718 mmHg 85%
    21:00 +25°C° 0.4 mm 1 mps 718 mmHg 85%
    22:00 +25°C° 0.4 mm 1 mps 719 mmHg 86%
    23:00 +23°C° 1 mm 0 mps 718 mmHg 87%
    Show more